TimeEST,TemperatureF,Dew PointF,Humidity,Sea Level PressureIn,VisibilityMPH,Wind Direction,Wind SpeedMPH,Gust SpeedMPH,PrecipitationIn,Events,Conditions,WindDirDegrees,DateUTC
12:53 AM,19.0,17.1,92,30.14,10.0,Calm,Calm,-,N/A,,Clear,0,2013-01-16 05:53:00
1:53 AM,19.0,14.0,81,30.12,10.0,Calm,Calm,-,N/A,,Clear,0,2013-01-16 06:53:00
2:53 AM,19.9,18.0,92,30.09,10.0,Calm,Calm,-,N/A,,Clear,0,2013-01-16 07:53:00
3:53 AM,17.1,14.0,88,30.08,7.0,Calm,Calm,-,N/A,,Clear,0,2013-01-16 08:53:00
4:53 AM,17.1,14.0,88,30.06,9.0,Calm,Calm,-,N/A,,Overcast,0,2013-01-16 09:53:00
5:53 AM,21.0,18.0,88,30.03,10.0,Calm,Calm,-,N/A,,Overcast,0,2013-01-16 10:53:00
6:53 AM,19.9,18.0,92,30.01,9.0,Calm,Calm,-,N/A,,Overcast,0,2013-01-16 11:53:00
7:53 AM,21.0,18.0,88,29.99,10.0,WNW,3.5,-,N/A,,Overcast,300,2013-01-16 12:53:00
8:53 AM,19.0,17.1,92,29.99,9.0,Calm,Calm,-,N/A,,Partly Cloudy,0,2013-01-16 13:53:00
9:53 AM,26.1,21.0,81,29.97,10.0,WSW,4.6,-,N/A,,Clear,250,2013-01-16 14:53:00
10:53 AM,30.0,21.9,72,29.97,10.0,WSW,13.8,-,N/A,,Clear,250,2013-01-16 15:53:00
11:53 AM,33.1,18.0,54,29.93,10.0,West,13.8,-,N/A,,Clear,260,2013-01-16 16:53:00
12:53 PM,36.0,16.0,44,29.87,10.0,WSW,11.5,-,N/A,,Clear,240,2013-01-16 17:53:00
1:53 PM,37.0,15.1,41,29.85,10.0,WSW,13.8,20.7,N/A,,Clear,240,2013-01-16 18:53:00
3:53 PM,37.0,14.0,39,29.84,10.0,WSW,19.6,27.6,N/A,,Clear,250,2013-01-16 20:53:00
4:53 PM,36.0,15.1,43,29.86,10.0,WSW,15.0,-,N/A,,Overcast,240,2013-01-16 21:53:00
5:53 PM,36.0,16.0,44,29.86,10.0,WSW,13.8,25.3,N/A,,Overcast,250,2013-01-16 22:53:00
6:53 PM,35.1,17.1,48,29.89,10.0,WSW,17.3,-,N/A,,Overcast,250,2013-01-16 23:53:00
7:53 PM,34.0,18.0,52,29.91,10.0,West,19.6,24.2,N/A,,Overcast,260,2013-01-17 00:53:00
8:53 PM,34.0,21.0,59,29.93,10.0,West,17.3,24.2,N/A,,Overcast,260,2013-01-17 01:53:00
9:53 PM,34.0,23.0,64,29.94,10.0,West,13.8,25.3,N/A,,Overcast,270,2013-01-17 02:53:00
10:05 PM,33.8,23.0,65,29.92,10.0,West,13.8,-,N/A,,Overcast,260,2013-01-17 03:05:00
10:53 PM,34.0,25.0,70,29.94,10.0,West,11.5,20.7,N/A,,Overcast,270,2013-01-17 03:53:00
11:53 PM,34.0,26.1,73,29.97,10.0,West,12.7,-,N/A,,Overcast,280,2013-01-17 04:53:00